Location: Orange Harbor Mobile Home Park
(26.6923°N, 81.7937°W)
Time: 07:46:17
(UTC+00:00)

Cosmos 1238 Rocket - Pass Details

Date: 19 September 2020
Orbit: 374 x 1028 km, 83.0° (Epoch: 29 October)

Event Time Altitude Azimuth Distance (km) Brightness Sun altitude
Rises 09:43:31 0° 345° (NNW) 3,757 7.0 -21.0°
Reaches altitude 10° 09:46:19 10° 338° (NNW) 2,767 6.3 -20.4°
Maximum altitude 09:52:14 40° 272° (W) 1,330 4.2 -19.1°
Enters shadow 09:57:17 11° 204° (SSW) 2,381 5.7 -18.0°
